Regional Weather Roundup
Issued by NWS Raleigh/Durham, NC

Home | Current Version | Previous Version | Text Only | Print | Product List | Glossary On
Versions: 1 2 3 4 5 6 7 8 9 10 11 12 13 14 15 16 17 18 19 20 21 22 23 24 25 26 27
000
ASUS42 KRAH 022110
RWRRAH
NORTH CAROLINA WEATHER ROUNDUP
NATIONAL WEATHER SERVICE RALEIGH NC
400 PM EST FRI DEC 02 2016

NOTE: "FAIR" INDICATES FEW OR NO CLOUDS BELOW 12,000 FEET WITH NO
SIGNIFICANT WEATHER AND/OR OBSTRUCTIONS TO VISIBILITY.

NCZ001-053-055-056-065-067-022200-
WESTERN NORTH CAROLINA

CITY           SKY/WX    TMP DP  RH WIND       PRES   REMARKS
ASHEVILLE      SUNNY     53  16  23 N14G22    30.15R
JEFFERSON      SUNNY     42  21  44 W14G28    30.09R
MORGANTON      SUNNY     57  19  22 NW10      30.16R
HICKORY        SUNNY     57  17  21 NW12G20   30.11R
RUTHERFORDTON  SUNNY     60  20  22 W12       30.12S
MOUNT AIRY     SUNNY     55  26  32 NW9       30.12R
BOONE          SUNNY     42  21  43 NW17G30   30.10S
$$

NCZ021-022-025-041-071-084-088-022200-
CENTRAL NORTH CAROLINA

CITY           SKY/WX    TMP DP  RH WIND       PRES   REMARKS
CHARLOTTE      MOSUNNY   57  26  30 VRB5      30.13R
GREENSBORO     MOSUNNY   56  30  37 W8        30.08S
WINSTON-SALEM  SUNNY     56  23  27 VRB7G18   30.10S
RALEIGH-DURHAM PTCLDY    57  28  33 W12       30.09S
FORT BRAGG     SUNNY     58  30  34 W12       30.09S
FAYETTEVILLE   SUNNY     58  31  35 NW10      30.10S
BURLINGTON     SUNNY     56  30  37 W10       30.08F
LAURINBURG     SUNNY     57  33  40 W6        30.13R
$$

NCZ011-015-027-028-043-044-047-080-103-022200-
NORTHEASTERN NORTH CAROLINA

CITY           SKY/WX    TMP DP  RH WIND       PRES   REMARKS
ROCKY MT-WILSO CLEAR     55  31  39 W9        30.09R
GREENVILLE     CLEAR     55  32  41 W6        30.09F
WASHINGTON     CLEAR     56  32  40 NW3       30.08S
ELIZABETH CITY CLEAR     53  32  44 W9        30.05S
MANTEO         CLEAR     52  33  49 NW8       30.06S
CAPE HATTERAS  CLEAR     54  37  52 VRB7      30.07R
$$

NCZ078-087-090-091-093-098-101-022200-
SOUTHEASTERN NORTH CAROLINA

CITY           SKY/WX    TMP DP  RH WIND       PRES   REMARKS
LUMBERTON      SUNNY     58  32  37 W12       30.12R
GOLDSBORO      CLEAR     57  29  33 NW12      30.07S
KINSTON        CLEAR     57  30  35 W5        30.09S
KENANSVILLE    CLEAR     57  30  35 NW7       30.10S
NEW BERN       CLEAR     56  32  40 W8        30.08F
CHERRY POINT   CLEAR     56  33  42 W10       30.08S
BEAUFORT       CLEAR     57  35  43 W10       30.07S
JACKSONVILLE   CLEAR     57  31  37 W13       30.08F
WILMINGTON     SUNNY     58  32  37 NW10      30.10S
$$





USA.gov is the U.S. government's official web portal to all federal, state and local government web resources and services.